Regional Weather Roundup
Issued by NWS

Home | Current Version | Previous Version | Graphics & Text | Print | Product List | Glossary On
Versions: 1 2 3 4 5 6 7 8 9 10 11 12 13 14 15 16 17 18 19 20 21 22 23 24 25 26 27 28 29 30 31 32 33 34 35 36 37 38 39 40 41 42 43 44 45 46 47 48 49 50
000
ASUS45 KTFX 270019
RWRMT
MONTANA HOURLY WEATHER ROUNDUP
NATIONAL WEATHER SERVICE GREAT FALLS MT
619 PM MDT THU MAR 26 2015

NOTE: "FAIR" INDICATES FEW OR NO CLOUDS BELOW 12000 FEET WITH NO
SIGNIFICANT WEATHER AND/OR OBSTRUCTIONS TO VISIBILITY.

* THESE STATIONS ARE NOT UNDER NWS QUALITY CONTROL. THEY DO NOT
   REPORT WEATHER SUCH AS PRECIPITATION OR FOG.

MTZ001>007-043-270100-
WEST OF THE DIVIDE
CITY           SKY/WX    TMP DP  RH WIND       PRES   REMARKS
KALISPELL      CLOUDY    48  43  83 CALM      30.26S
MISSOULA       CLOUDY    57  39  51 CALM      30.29F
BUTTE          PTCLDY    55  34  45 NW21G28   30.27S
MULLAN PASS    PTCLDY    45  37  74 VRB7      30.31S
* ESSEX        N/A       48  40  74 N1         N/A
* EUREKA APT   PTCLDY    54  43  67 S12        N/A
* HAMILTON APT CLEAR     59  36  42 NW3       30.30S
* LIBBY APT    PTCLDY    61  41  48 NE5       30.24S
* LINCOLN      N/A       49  37  63 W4G15      N/A
* LOOKOUT PASS N/A       52  41  66 S4G12      N/A
* POLSON       N/A       55  43  64 SW2        N/A
* SEELEY LAKE  N/A       51  40  66 N5         N/A
* THOMP F APT  CLEAR     47  26  44 S4G9       N/A
$$

MTZ008-052>055-270100-
SOUTHWEST MONTANA
CITY           SKY/WX    TMP DP  RH WIND       PRES   REMARKS
BOZEMAN        CLOUDY    61  36  39 W15       30.21S
DILLON         MOCLDY    59  32  36 NW17      30.26R
* W YELLOWSTON CLEAR     44  31  60 SW5G13     N/A
* THREE FORKS  PTCLDY    64  36  35 W14G23     N/A
* TWIN BRIDGES MOCLDY    61  34  36 SW11G21    N/A
* BOULDER HILL N/A       52  30  43 S4G9       N/A
* HOMESTAKE PS N/A       50  32  50 W12G24     N/A
* MONIDA PASS  N/A       47  27  46 SE9G14     N/A
* RAYNOLDS PAS N/A       42  26  53 S11        N/A
* WHITEHALL    N/A       60  34  38 W12G22     N/A
* WISE RIVER   N/A       53  34  49 W18G26     N/A
$$

MTZ009>010-012-014-046-048-049-054-270100-
EAST SLOPES AND CENTRAL MONTANA
CITY           SKY/WX    TMP DP  RH WIND       PRES   REMARKS
CUT BANK       CLOUDY    57  36  46 W15       30.07R
GREAT FALLS    PTCLDY    64  34  33 W23G30    30.08R
HELENA         PTCLDY    57  37  47 W13       30.21R
MALMSTROM AFB  MOCLDY    63  34  34 W21G31    30.08S
* DEARBORN     N/A       60  37  43 S19G26     N/A
* EAST GLACIER N/A       50  37  61 W38G47     N/A
* MONARCH      N/A       56  29  36 W22G36     N/A
* PENDROY      N/A       59  30  33 NW21G28    N/A
* ROGERS PASS  N/A       45  36  71 SE14G23    N/A
* WHITE SULPH  N/A       57  35  44 W6G18      N/A
$$

MTZ011-013-016-021-035-040-045-047-050-051-270100-
NORTH CENTRAL MONTANA
CITY           SKY/WX    TMP DP  RH WIND       PRES   REMARKS
HAVRE          MOCLDY    64  36  35 NW12      29.99R
LEWISTOWN      CLOUDY    61  37  41 W20G29    30.05F
* N BAR RANCH  MOCLDY    55  37  51 NW14G26   30.06F
* CHINOOK      MOCLDY    63  36  37 W5        29.98F
* FORT BENTON  MOCLDY    64  34  33 W23G29    30.04R
* CHESTER      N/A       62  33  34 NW16G25    N/A
* DENTON       N/A       63  34  34 NW15G24    N/A
* GEYSER       N/A       62  32  32 W27G38     N/A
* JUDITH GAP   N/A       59  33  38 NW15G23    N/A
* LOMA         N/A       65  36  34 W18G24     N/A
$$

MTZ017>020-022>027-061-062-270100-
NORTHEAST MONTANA
CITY           SKY/WX    TMP DP  RH WIND       PRES   REMARKS
GLASGOW        CLOUDY    48  34  59 E17       30.05F
GLENDIVE       CLOUDY    46  34  63 E10       30.11F
JORDAN         CLOUDY    57  30  36 CALM      30.03F
SIDNEY         MOCLDY    43  34  71 E9        30.15S
WOLF POINT     CLOUDY    46  36  68 E14       30.10F
* BEAVER HILL  N/A       45  32  60 E9G14      N/A
* CIRCLE       N/A       53  29  40 NE1        N/A
* LINDSAY DVD  N/A       46  30  54 NE13       N/A
* NAVAJO       N/A       38  32  79 SE7        N/A   WCI  33
* PLENTYWOOD A MOCLDY    41  30  65 S8        30.13F
* POPLAR APT   MOCLDY    43  36  76 E9        30.12F
* SACO         N/A       53  30  41 E15        N/A
$$

MTZ028>042-056>058-270100-
SOUTHCENTRAL AND SOUTHEAST MONTANA
CITY           SKY/WX    TMP DP  RH WIND       PRES   REMARKS
BAKER          CLOUDY    46  30  54 E13       30.12R
BILLINGS       CLOUDY    63  34  34 NW15      30.07F
LIVINGSTON     MOCLDY    61  34  36 W20G28    30.16S
MILES CITY     CLOUDY    55  30  39 NE8       30.06R
* BIG TIMBER A MOCLDY    57  34  42 W26G41    30.11S
* FORSYTH APT  CLOUDY    55  37  51 NW7       30.06R
* LAUREL APT   CLOUDY    63  34  34 W13        N/A
* ROUNDUP APT  CLOUDY    59  36  42 N/A        N/A
* ALZADA       N/A       49  29  46 NW4        N/A
* HYSHAM       N/A       57  30  36 NW3G8      N/A
* LAME DEER    N/A       51  33  50 N6         N/A
* REED POINT   N/A       62  33  34 W19G37     N/A
* ROSCOE HILL  N/A       58  18  21 W9G17      N/A
$$

REGIONAL REPORTS...DAKOTAS
CITY           SKY/WX    TMP DP  RH WIND       PRES   REMARKS
WILLISTON      MOCLDY    45  25  45 SE5       30.15F
DICKINSON      MOCLDY    37  28  70 E8        30.15S WCI  31
BEACH          MOCLDY    41  32  70 E13       30.13S
CROSBY         FAIR      39  27  62 SE8       30.18S WCI  33
TIOGA          CLEAR     37  25  62 SE12      30.20S WCI  29
WATFORD CITY   FAIR      41  27  58 SE8       30.14F
BISMARCK       CLOUDY    37  19  48 NE6       30.23S WCI  32
GRAND FORKS    MOCLDY    28  16  61 N13       30.29R WCI  17
FARGO          PTCLDY    32   9  38 N18       30.26R WCI  21
BUFFALO SD     CLOUDY    45  30  56 E12       30.07R
RAPID CITY     PTCLDY    46  28  50 NE12      30.12S
$$

REGIONAL REPORTS...WYOMING/IDAHO/WASHINGTON
CITY           SKY/WX    TMP DP  RH WIND       PRES   REMARKS
GILLETTE       CLOUDY    52  34  50 N10       30.08F
SHERIDAN       CLOUDY    57  34  42 N15       30.08S
CODY           CLOUDY    61  28  29 W14G29    30.15R
YELLOWSTONE LA MOCLDY    39  28  65 VRB3      30.36R
SALMON         PTCLDY    61  36  39 CALM      30.28R
MULLAN PASS    PTCLDY    45  37  74 VRB7      30.31S
SAND POINT     MOCLDY    54  46  74 E7        30.26F
SPOKANE        CLOUDY    61  45  56 S6        30.24F
$$

REGIONAL REPORTS...ALBERTA
CITY           SKY/WX    TMP DP  RH WIND       PRES   REMARKS
CALGARY        MOCLDY    61  30  31 W25G35    29.96R
LETHBRIDGE     MOCLDY    59  37  44 W31G39    30.01S
MEDICINE HAT   CLOUDY    64  32  30 NW7       29.96S
EDMONTON       MOCLDY    43  36  76 S8        29.93F
WATERTON GATE  N/A       54  37  53 SW23G35    N/A
CARDSTON       N/A       54  39  57 W20G32     N/A
MILK RIVER     N/A       57  37  47 W26G36     N/A
$$

REGIONAL REPORTS...SASKATCHEWAN
CITY           SKY/WX    TMP DP  RH WIND       PRES   REMARKS
SWIFT CURRENT  CLOUDY    48  32  54 SE8       29.99F
MOOSE JAW      CLOUDY    41  36  82 SE12      30.10F
REGINA         CLOUDY    36  30  79 SE15      30.15S WCI  27
VAL MARIE      N/A       50  32  50 SE9        N/A
ASSINIBOIA     N/A       43  34  71 SE10G17    N/A
CORONACH       N/A       37  30  76 SE10       N/A   WCI  30

$$




USA.gov is the U.S. government's official web portal to all federal, state and local government web resources and services.